Regional Weather Roundup
Issued by NWS Upton, NY

Current Version | Previous Version | Graphics & Text | Print | Product List | Glossary Off
Versions: 1 2 3 4 5 6 7 8 9 10 11 12 13 14 15 16 17 18 19 20 21 22 23 24 25 26 27 28 29 30 31 32 33 34 35 36 37 38 39 40 41 42 43 44 45 46 47 48 49 50

000
ASUS41 KOKX 251805
RWROKX

REGIONAL WEATHER ROUNDUP
NATIONAL WEATHER SERVICE NEW YORK NY
100 PM EST THU DEC 25 2014

NOTE: "FAIR" INDICATES FEW OR NO CLOUDS BELOW 12,000 FEET WITH NO
SIGNIFICANT WEATHER AND/OR OBSTRUCTIONS TO VISIBILITY.

NYZ071-072-176-178-NJZ106-104-251900-
NEW YORK CITY METRO AREA


CITY           SKY/WX    TMP DP  RH WIND       PRES   REMARKS
CENTRAL PARK   PTSUNNY   52  27  38 NW13G22   29.81R
LAGUARDIA APRT PTSUNNY   52  28  39 W20G32    29.78R
KENNEDY INTL   PTSUNNY   53  27  36 W23G37    29.79R
NEWARK/LIBERTY PTSUNNY   52  30  43 W21G33    29.80R
BRNX BOT. GARD   N/A    N/A N/A N/A NW14      29.82R
TETERBORO      PTSUNNY   51  30  44 W20G35    29.78R
$$

NYZ177-179-078>081-251900-
LONG ISLAND NEW YORK

CITY           SKY/WX    TMP DP  RH WIND       PRES   REMARKS
FARMINGDALE    SUNNY     53  28  38 W23G37    29.76R
ISLIP          MOSUNNY   53  29  39 NW24G37   29.74R
SHIRLEY        SUNNY     53  31  42 NW20G32   29.74R
WESTHAMPTON    SUNNY     53  33  46 W24G32    29.73R
MONTAUK POINT    N/A     51  39  63 W16G26    29.70R
$$

NYZ052-065-067-251900-
HUDSON VALLEY

CITY           SKY/WX    TMP DP  RH WIND       PRES   REMARKS
WHITE PLAINS   PTSUNNY   51  29  42 W21G31    29.75R
NEWBURGH       PTSUNNY   48  34  57 NW21G32   29.76R
MONTGOMERY     CLOUDY    49  30  48 W12G20    29.75R
POUGHKEEPSIE   CLOUDY    50  29  44 W15G23    29.75R
ALBANY         PTSUNNY   49  31  49 W21       29.70R
$$

NJZ001-105-106-008-010-013-015-019>022-104-251900-
NEW JERSEY

CITY           SKY/WX    TMP DP  RH WIND       PRES   REMARKS
NEWARK/LIBERTY PTSUNNY   52  30  43 W21G33    29.80R
TETERBORO      PTSUNNY   51  30  44 W20G35    29.78R
CALDWELL       CLOUDY    50  28  42 W13G25    29.80R
MORRISTOWN     CLOUDY    54  32  43 NW17G28   29.81R
SOMERVILLE     PTSUNNY   51  30  44 W12G26    29.81R
SUSSEX         CLOUDY    48  30  49 W9G16     29.79R
ANDOVER        NOT AVBL
TRENTON        CLOUDY    51  29  42 NW15G31   29.84R
MILLVILLE      PTSUNNY   53  31  42 W17G31    29.89R
ATLANTIC CITY  PTSUNNY   52  31  44 NW26G36   29.86R
WRIGHTSTOWN    CLOUDY    51  31  47 W17G29    29.83R
TOMS RIVER     PTSUNNY   52  30  43 W21G31    29.84R
BELMAR         CLOUDY    52  30  43 W15G29    29.82R
$$

PAZ047>061-062-071-251900-
EASTERN PENNSYLVANIA

CITY           SKY/WX    TMP DP  RH WIND       PRES   REMARKS
PHILADELPHIA   PTSUNNY   53  30  41 W26G39    29.89R
ALLENTOWN      PTSUNNY   49  30  48 W18G32    29.85R
SCRANTON       CLOUDY    45  32  60 SW13G22   29.82R
$$

CTZ002-004>006-009-010-012-RIZ004-006-007-MAZ004-011-015-251900-
SOUTHERN NEW ENGLAND
 IN CT

CITY           SKY/WX    TMP DP  RH WIND       PRES   REMARKS
BRADLEY INTL   LGT RAIN  49  34  56 W21G41    29.67R
HARTFORD       CLOUDY    51  35  54 W14G24    29.69R
DANBURY        CLOUDY    49  27  42 W18G30    29.74R
WTRBRY/OXFORD  MOSUNNY   50  30  46 NW13G31   29.72R
BRIDGEPORT     PTSUNNY   52  30  43 W25G37    29.72R
MERIDEN        CLOUDY    51  31  46 W18G26    29.71R
NEW HAVEN      MOSUNNY   54  30  40 NW14G28   29.72R
CHESTER        MOCLDY    52  32  46 NW16G23   29.69R
GROTON         MOSUNNY   53  37  54 W17       29.67R
WILLIMANTIC    CLOUDY    53  36  52 W17G30    29.67R

 IN RI

CITY           SKY/WX    TMP DP  RH WIND       PRES   REMARKS
PROVIDENCE     MOSUNNY   53  34  48 NW10G21   29.64R
BLOCK ISLAND   MOSUNNY   52  39  62 W21G29    29.67R
WESTERLY       PTSUNNY   51  40  65 W13G23    29.66R

 IN MA

CITY           SKY/WX    TMP DP  RH WIND       PRES   REMARKS
BOSTON         MOSUNNY   51  36  56 W16G31    29.60R
WORCESTER      MOSUNNY   47  30  51 W18G36    29.61R
WESTFIELD      CLOUDY    51  29  42 W14G24    29.66R
PROVINCETOWN   CLOUDY    52  46  82 W10       29.59R
NANTUCKET      CLOUDY    50  44  80 W22       29.62R
$$

ANZ330-335-338-340-345-350-353-355-251900-
COASTAL MARINE OBSERVATIONS


STATION/POSITION TIME  SKY/WX   TEMP    WIND        PRES    VSBY  WAVE
                                AIR SEA DIR/SP/G                  HT/PER
                 (UTC)          (F)     (DEG/KT/KT) (MB)    (MI)  (FT/S)
NY HARB ENTRANCE 1800            49 46  280/ 21/ 27 1009.1          5/ 8
4S FIRE IS       1800               47                N/A           7/ 8
20S FIRE ISLAND  1700            49 50              1007.5          7/ 8
23SW MTP         1800                                 N/A           7/ 9
HUDSON CANYON    1800            51 56  300/ 27/ 33 1008.2          9/ 8
EXECUTION ROCKS  1800            51 42  280/ 23/ 33   N/A
WESTERN LI SOUND 1700            50     290/ 21/ 29   N/A           2/ 3
CENTRAL LI SOUND 1700            47 44  260/ 14/ 17   N/A           2/ 4
EASTERN LI SOUND NOT AVBL
ROBBINS REEF     1800            51                 1007.5
$$


>>>>>>>>>>>>>>>>>>>>>>>>>>>> KEY <<<<<<<<<<<<<<<<<<<<<<<<<<<
>                                                          <
>     SKY/WX - SKY CONDITION/PRESENT WEATHER               <
>     TMP    - TEMPERATURE IN FAHRENHEIT                   <
>     DP     - DEWPOINT IN FAHRENHEIT                      <
>     RH     - RELATIVE HUMIDITY IN PERCENT                <
>     WIND   - DIRECTION AND SPEED IN MPH                  <
>     PRES   - MEAN SEA LEVEL PRESSURE IN INCHES OF HG     <
>     WCI    - WIND CHILL INDEX                            <
>     VSB    - VISIBILITY IN MILES                         <
>     HX     - HEAT INDEX                                  <
>     TC     - TEMPERATURE IN CELSIUS                      <
>     VRB    - VARIABLE WIND DIRECTION                     <
>                                                          <
>>>>>>>>>>>>>>>>>>>>>>>>>>>> KEY <<<<<<<<<<<<<<<<<<<<<<<<<<<





USA.gov is the U.S. government's official web portal to all federal, state and local government web resources and services.